IPM 2 & BREEZE-M R/B

Last updated on Thu Jan 14 2021 00:02:03 GMT+0000 (Coordinated Universal Time)

1 47242U 20097A 21013.14290899 -.00000115 00000-0 00000+0 0 9993 2 47242 0.0894 157.8974 0089100 163.1247 38.3069 0.95298033 384
UTC large
Height (km)
Speed (km/s)
/
Latitude / Longitude
Inclination (degrees)
Orbital Period (minutes)
Azimuth
Elevation
Range (km)
Doppler Factor

Next 0 passes for location: London (51.5072 / 0.1276)

Sorry there are no passes over London.